Year,Month,Day,Hour,Minute,Value (Times are PST for temperature in C)
2018,08,10,00,00,22.10
2018,08,10,00,01,22.10
2018,08,10,00,02,22.10
2018,08,10,00,03,22.00
2018,08,10,00,04,21.90
2018,08,10,00,05,21.90
2018,08,10,00,06,21.80
2018,08,10,00,07,21.80
2018,08,10,00,08,21.80
2018,08,10,00,09,21.70
2018,08,10,00,10,21.70
2018,08,10,00,11,21.60
2018,08,10,00,12,21.60
2018,08,10,00,13,21.50
2018,08,10,00,14,21.50
2018,08,10,00,15,21.50
2018,08,10,00,16,21.40
2018,08,10,00,17,21.40
2018,08,10,00,18,21.40
2018,08,10,00,19,21.30
2018,08,10,00,20,21.30
2018,08,10,00,21,21.30
2018,08,10,00,22,21.30
2018,08,10,00,23,21.20
2018,08,10,00,24,21.20
2018,08,10,00,25,21.20
2018,08,10,00,26,21.20
2018,08,10,00,27,21.10
2018,08,10,00,28,21.10
2018,08,10,00,29,21.10
2018,08,10,00,30,21.10
2018,08,10,00,31,21.00
2018,08,10,00,32,21.00
2018,08,10,00,33,21.00
2018,08,10,00,34,20.90
2018,08,10,00,35,20.90
2018,08,10,00,36,20.90
2018,08,10,00,37,20.90
2018,08,10,00,38,20.90
2018,08,10,00,39,20.80
2018,08,10,00,40,20.80
2018,08,10,00,41,20.80
2018,08,10,00,42,20.80
2018,08,10,00,43,20.80
2018,08,10,00,44,20.80
2018,08,10,00,45,20.70
2018,08,10,00,46,20.70
2018,08,10,00,47,20.70
2018,08,10,00,48,20.70
2018,08,10,00,49,20.70
2018,08,10,00,50,20.60
2018,08,10,00,51,20.60
2018,08,10,00,52,20.60
2018,08,10,00,53,20.60
2018,08,10,00,54,20.60
2018,08,10,00,55,20.60
2018,08,10,00,56,20.50
2018,08,10,00,57,20.50
2018,08,10,00,58,20.50
2018,08,10,00,59,20.50
2018,08,10,01,00,20.50
2018,08,10,01,01,20.50
2018,08,10,01,02,20.40
2018,08,10,01,03,20.40
2018,08,10,01,04,20.40
2018,08,10,01,05,20.40
2018,08,10,01,06,20.40
2018,08,10,01,07,20.40
2018,08,10,01,08,20.40
2018,08,10,01,09,20.40
2018,08,10,01,10,20.40
2018,08,10,01,11,20.40
2018,08,10,01,12,20.30
2018,08,10,01,13,20.30
2018,08,10,01,14,20.30
2018,08,10,01,15,20.30
2018,08,10,01,16,20.30
2018,08,10,01,17,20.30
2018,08,10,01,18,20.20
2018,08,10,01,19,20.20
2018,08,10,01,20,20.20
2018,08,10,01,21,20.20
2018,08,10,01,22,20.20
2018,08,10,01,23,20.20
2018,08,10,01,24,20.10
2018,08,10,01,25,20.10
2018,08,10,01,26,20.10
2018,08,10,01,27,20.10
2018,08,10,01,28,20.10
2018,08,10,01,29,20.00
2018,08,10,01,30,20.00
2018,08,10,01,31,20.00
2018,08,10,01,32,20.00
2018,08,10,01,33,20.00
2018,08,10,01,34,19.90
2018,08,10,01,35,19.90
2018,08,10,01,36,19.90
2018,08,10,01,37,19.90
2018,08,10,01,38,19.90
2018,08,10,01,39,19.90
2018,08,10,01,40,19.80
2018,08,10,01,41,19.80
2018,08,10,01,42,19.80
2018,08,10,01,43,19.80
2018,08,10,01,44,19.80
2018,08,10,01,45,19.80
2018,08,10,01,46,19.80
2018,08,10,01,47,19.70
2018,08,10,01,48,19.70
2018,08,10,01,49,19.70
2018,08,10,01,50,19.70
2018,08,10,01,51,19.70
2018,08,10,01,52,19.70
2018,08,10,01,53,19.70
2018,08,10,01,54,19.60
2018,08,10,01,55,19.60
2018,08,10,01,56,19.60
2018,08,10,01,57,19.60
2018,08,10,01,58,19.60
2018,08,10,01,59,19.60
2018,08,10,02,00,19.50
2018,08,10,02,01,19.50
2018,08,10,02,02,19.50
2018,08,10,02,03,19.40
2018,08,10,02,04,19.40
2018,08,10,02,05,19.40
2018,08,10,02,06,19.40
2018,08,10,02,07,19.40
2018,08,10,02,08,19.30
2018,08,10,02,09,19.30
2018,08,10,02,10,19.30
2018,08,10,02,11,19.30
2018,08,10,02,12,19.30
2018,08,10,02,13,19.30
2018,08,10,02,14,19.30
2018,08,10,02,15,19.30
2018,08,10,02,16,19.20
2018,08,10,02,17,19.20
2018,08,10,02,18,19.20
2018,08,10,02,19,19.20
2018,08,10,02,20,19.20
2018,08,10,02,21,19.20
2018,08,10,02,22,19.20
2018,08,10,02,23,19.20
2018,08,10,02,24,19.20
2018,08,10,02,25,19.20
2018,08,10,02,26,19.20
2018,08,10,02,27,19.20
2018,08,10,02,28,19.10
2018,08,10,02,29,19.10
2018,08,10,02,30,19.10
2018,08,10,02,31,19.10
2018,08,10,02,32,19.10
2018,08,10,02,33,19.00
2018,08,10,02,34,19.00
2018,08,10,02,35,18.90
2018,08,10,02,36,18.90
2018,08,10,02,37,18.90
2018,08,10,02,38,18.90
2018,08,10,02,39,18.80
2018,08,10,02,40,18.80
2018,08,10,02,41,18.80
2018,08,10,02,42,18.70
2018,08,10,02,43,18.70
2018,08,10,02,44,18.60
2018,08,10,02,45,18.60
2018,08,10,02,46,18.50
2018,08,10,02,47,18.50
2018,08,10,02,48,18.40
2018,08,10,02,49,18.40
2018,08,10,02,50,18.30
2018,08,10,02,51,18.30
2018,08,10,02,52,18.30
2018,08,10,02,53,18.30
2018,08,10,02,54,18.30
2018,08,10,02,55,18.30
2018,08,10,02,56,18.30
2018,08,10,02,57,18.30
2018,08,10,02,58,18.30
2018,08,10,02,59,18.40
2018,08,10,03,00,18.40
2018,08,10,03,01,18.40
2018,08,10,03,02,18.40
2018,08,10,03,03,18.40
2018,08,10,03,04,18.40
2018,08,10,03,05,18.50
2018,08,10,03,06,18.50
2018,08,10,03,07,18.50
2018,08,10,03,08,18.50
2018,08,10,03,09,18.50
2018,08,10,03,10,18.50
2018,08,10,03,11,18.50
2018,08,10,03,12,18.50
2018,08,10,03,13,18.40
2018,08,10,03,14,18.40
2018,08,10,03,15,18.40
2018,08,10,03,16,18.40
2018,08,10,03,17,18.40
2018,08,10,03,18,18.40
2018,08,10,03,19,18.40
2018,08,10,03,20,18.40
2018,08,10,03,21,18.40
2018,08,10,03,22,18.40
2018,08,10,03,23,18.40
2018,08,10,03,24,18.40
2018,08,10,03,25,18.30
2018,08,10,03,26,18.30
2018,08,10,03,27,18.30
2018,08,10,03,28,18.30
2018,08,10,03,29,18.30
2018,08,10,03,30,18.30
2018,08,10,03,31,18.30
2018,08,10,03,32,18.20
2018,08,10,03,33,18.20
2018,08,10,03,34,18.20
2018,08,10,03,35,18.20
2018,08,10,03,36,18.20
2018,08,10,03,37,18.20
2018,08,10,03,38,18.10
2018,08,10,03,39,18.10
2018,08,10,03,40,18.10
2018,08,10,03,41,18.10
2018,08,10,03,42,18.10
2018,08,10,03,43,18.00
2018,08,10,03,44,18.00
2018,08,10,03,45,18.00
2018,08,10,03,46,18.00
2018,08,10,03,47,17.90
2018,08,10,03,48,17.90
2018,08,10,03,49,17.90
2018,08,10,03,50,17.90
2018,08,10,03,51,17.90
2018,08,10,03,52,17.90
2018,08,10,03,53,17.80
2018,08,10,03,54,17.80
2018,08,10,03,55,17.80
2018,08,10,03,56,17.80
2018,08,10,03,57,17.80
2018,08,10,03,58,17.80
2018,08,10,03,59,17.80
2018,08,10,04,00,17.80
2018,08,10,04,01,17.70
2018,08,10,04,02,17.70
2018,08,10,04,03,17.70
2018,08,10,04,04,17.70
2018,08,10,04,05,17.70
2018,08,10,04,06,17.70
2018,08,10,04,07,17.70
2018,08,10,04,08,17.60
2018,08,10,04,09,17.60
2018,08,10,04,10,17.60
2018,08,10,04,11,17.60
2018,08,10,04,12,17.60
2018,08,10,04,13,17.50
2018,08,10,04,14,17.50
2018,08,10,04,15,17.50
2018,08,10,04,16,17.50
2018,08,10,04,17,17.50
2018,08,10,04,18,17.40
2018,08,10,04,19,17.40
2018,08,10,04,20,17.40
2018,08,10,04,21,17.40
2018,08,10,04,22,17.50
2018,08,10,04,23,17.50
2018,08,10,04,24,17.50
2018,08,10,04,25,17.50
2018,08,10,04,26,17.50
2018,08,10,04,27,17.60
2018,08,10,04,28,17.60
2018,08,10,04,29,17.60
2018,08,10,04,30,17.60
2018,08,10,04,31,17.60
2018,08,10,04,32,17.60
2018,08,10,04,33,17.70
2018,08,10,04,34,17.70
2018,08,10,04,35,17.70
2018,08,10,04,36,17.70
2018,08,10,04,37,17.70
2018,08,10,04,38,17.70
2018,08,10,04,39,17.70
2018,08,10,04,40,17.70
2018,08,10,04,41,17.70
2018,08,10,04,42,17.70
2018,08,10,04,43,17.70
2018,08,10,04,44,17.70
2018,08,10,04,45,17.70
2018,08,10,04,46,17.70
2018,08,10,04,47,17.70
2018,08,10,04,48,17.70
2018,08,10,04,49,17.70
2018,08,10,04,50,17.70
2018,08,10,04,51,17.70
2018,08,10,04,52,17.60
2018,08,10,04,53,17.60
2018,08,10,04,54,17.60
2018,08,10,04,55,17.60
2018,08,10,04,56,17.60
2018,08,10,04,57,17.60
2018,08,10,04,58,17.60
2018,08,10,04,59,17.60
2018,08,10,05,00,17.60
2018,08,10,05,01,17.60
2018,08,10,05,02,17.60
2018,08,10,05,03,17.60
2018,08,10,05,04,17.60
2018,08,10,05,05,17.60
2018,08,10,05,06,17.60
2018,08,10,05,07,17.60
2018,08,10,05,08,17.60
2018,08,10,05,09,17.60
2018,08,10,05,10,17.60
2018,08,10,05,11,17.60
2018,08,10,05,12,17.60
2018,08,10,05,13,17.60
2018,08,10,05,14,17.60
2018,08,10,05,15,17.60
2018,08,10,05,16,17.60
2018,08,10,05,17,17.60
2018,08,10,05,18,17.50
2018,08,10,05,19,17.50
2018,08,10,05,20,17.50
2018,08,10,05,21,17.50
2018,08,10,05,22,17.50
2018,08,10,05,23,17.40
2018,08,10,05,24,17.40
2018,08,10,05,25,17.40
2018,08,10,05,26,17.40
2018,08,10,05,27,17.40
2018,08,10,05,28,17.40
2018,08,10,05,29,17.40
2018,08,10,05,30,17.40
2018,08,10,05,31,17.40
2018,08,10,05,32,17.40
2018,08,10,05,33,17.40
2018,08,10,05,34,17.40
2018,08,10,05,35,17.40
2018,08,10,05,36,17.30
2018,08,10,05,37,17.30
2018,08,10,05,38,17.30
2018,08,10,05,39,17.30
2018,08,10,05,40,17.30
2018,08,10,05,41,17.30
2018,08,10,05,42,17.30
2018,08,10,05,43,17.30
2018,08,10,05,44,17.30
2018,08,10,05,45,17.30
2018,08,10,05,46,17.30
2018,08,10,05,47,17.30
2018,08,10,05,48,17.30
2018,08,10,05,49,17.30
2018,08,10,05,50,17.30
2018,08,10,05,51,17.30
2018,08,10,05,52,17.30
2018,08,10,05,53,17.30
2018,08,10,05,54,17.30
2018,08,10,05,55,17.30
2018,08,10,05,56,17.30
2018,08,10,05,57,17.30
2018,08,10,05,58,17.30
2018,08,10,05,59,17.20
2018,08,10,06,00,17.20
2018,08,10,06,01,17.20
2018,08,10,06,02,17.20
2018,08,10,06,03,17.20
2018,08,10,06,04,17.20
2018,08,10,06,05,17.20
2018,08,10,06,06,17.20
2018,08,10,06,07,17.20
2018,08,10,06,08,17.20
2018,08,10,06,09,17.20
2018,08,10,06,10,17.20
2018,08,10,06,11,17.20
2018,08,10,06,12,17.20
2018,08,10,06,13,17.20
2018,08,10,06,14,17.20
2018,08,10,06,15,17.20
2018,08,10,06,16,17.20
2018,08,10,06,17,17.20
2018,08,10,06,18,17.30
2018,08,10,06,19,17.30
2018,08,10,06,20,17.30
2018,08,10,06,21,17.30
2018,08,10,06,22,17.30
2018,08,10,06,23,17.30
2018,08,10,06,24,17.40
2018,08,10,06,25,17.40
2018,08,10,06,26,17.40
2018,08,10,06,27,17.40
2018,08,10,06,28,17.40
2018,08,10,06,29,17.40
2018,08,10,06,30,17.40
2018,08,10,06,31,17.40
2018,08,10,06,32,17.40
2018,08,10,06,33,17.40
2018,08,10,06,34,17.40
2018,08,10,06,35,17.40
2018,08,10,06,36,17.40
2018,08,10,06,37,17.40
2018,08,10,06,38,17.40
2018,08,10,06,39,17.40
2018,08,10,06,40,17.40
2018,08,10,06,41,17.30
2018,08,10,06,42,17.30
2018,08,10,06,43,17.30
2018,08,10,06,44,17.30
2018,08,10,06,45,17.30
2018,08,10,06,46,17.30
2018,08,10,06,47,17.30
2018,08,10,06,48,17.30
2018,08,10,06,49,17.30
2018,08,10,06,50,17.30
2018,08,10,06,51,17.30
2018,08,10,06,52,17.30
2018,08,10,06,53,17.30
2018,08,10,06,54,17.30
2018,08,10,06,55,17.30
2018,08,10,06,56,17.30
2018,08,10,06,57,17.30
2018,08,10,06,58,17.30
2018,08,10,06,59,17.40
2018,08,10,07,00,17.40
2018,08,10,07,01,17.40
2018,08,10,07,02,17.40
2018,08,10,07,03,17.40
2018,08,10,07,04,17.40
2018,08,10,07,05,17.40
2018,08,10,07,06,17.50
2018,08,10,07,07,17.50
2018,08,10,07,08,17.50
2018,08,10,07,09,17.50
2018,08,10,07,10,17.60
2018,08,10,07,11,17.60
2018,08,10,07,12,17.60
2018,08,10,07,13,17.60
2018,08,10,07,14,17.60
2018,08,10,07,15,17.60
2018,08,10,07,16,17.60
2018,08,10,07,17,17.60
2018,08,10,07,18,17.70
2018,08,10,07,19,17.70
2018,08,10,07,20,17.70
2018,08,10,07,21,17.70
2018,08,10,07,22,17.70
2018,08,10,07,23,17.70
2018,08,10,07,24,17.80
2018,08,10,07,25,17.80
2018,08,10,07,26,17.80
2018,08,10,07,27,17.80
2018,08,10,07,28,17.80
2018,08,10,07,29,17.90
2018,08,10,07,30,17.90
2018,08,10,07,31,17.90
2018,08,10,07,32,17.90
2018,08,10,07,33,17.90
2018,08,10,07,34,17.90
2018,08,10,07,35,18.00
2018,08,10,07,36,18.00
2018,08,10,07,37,18.00
2018,08,10,07,38,18.00
2018,08,10,07,39,18.10
2018,08,10,07,40,18.10
2018,08,10,07,41,18.10
2018,08,10,07,42,18.10
2018,08,10,07,43,18.20
2018,08,10,07,44,18.20
2018,08,10,07,45,18.20
2018,08,10,07,46,18.20
2018,08,10,07,47,18.20
2018,08,10,07,48,18.30
2018,08,10,07,49,18.30
2018,08,10,07,50,18.30
2018,08,10,07,51,18.40
2018,08,10,07,52,18.40
2018,08,10,07,53,18.50
2018,08,10,07,54,18.50
2018,08,10,07,55,18.60
2018,08,10,07,56,18.60
2018,08,10,07,57,18.70
2018,08,10,07,58,18.70
2018,08,10,07,59,18.80
2018,08,10,08,00,18.80
2018,08,10,08,01,18.90
2018,08,10,08,02,18.90
2018,08,10,08,03,19.00
2018,08,10,08,04,19.10
2018,08,10,08,05,19.20
2018,08,10,08,06,19.20
2018,08,10,08,07,19.30
2018,08,10,08,08,19.40
2018,08,10,08,09,19.50
2018,08,10,08,10,19.60
2018,08,10,08,11,19.70
2018,08,10,08,12,19.80
2018,08,10,08,13,19.80
2018,08,10,08,14,19.90
2018,08,10,08,15,19.90
2018,08,10,08,16,20.00
2018,08,10,08,17,20.00
2018,08,10,08,18,20.10
2018,08,10,08,19,20.10
2018,08,10,08,20,20.20
2018,08,10,08,21,20.20
2018,08,10,08,22,20.20
2018,08,10,08,23,20.20
2018,08,10,08,24,20.20
2018,08,10,08,25,20.30
2018,08,10,08,26,20.30
2018,08,10,08,27,20.30
2018,08,10,08,28,20.30
2018,08,10,08,29,20.30
2018,08,10,08,30,20.30
2018,08,10,08,31,20.30
2018,08,10,08,32,20.30
2018,08,10,08,33,20.30
2018,08,10,08,34,20.30
2018,08,10,08,35,20.30
2018,08,10,08,36,20.40
2018,08,10,08,37,20.40
2018,08,10,08,38,20.40
2018,08,10,08,39,20.40
2018,08,10,08,40,20.50
2018,08,10,08,41,20.60
2018,08,10,08,42,20.60
2018,08,10,08,43,20.70
2018,08,10,08,44,20.80
2018,08,10,08,45,20.80
2018,08,10,08,46,20.90
2018,08,10,08,47,21.00
2018,08,10,08,48,21.10
2018,08,10,08,49,21.10
2018,08,10,08,50,21.20
2018,08,10,08,51,21.20
2018,08,10,08,52,21.30
2018,08,10,08,53,21.30
2018,08,10,08,54,21.40
2018,08,10,08,55,21.40
2018,08,10,08,56,21.50
2018,08,10,08,57,21.50
2018,08,10,08,58,21.50
2018,08,10,08,59,21.60
2018,08,10,09,00,21.60
2018,08,10,09,01,21.60
2018,08,10,09,02,21.60
2018,08,10,09,03,21.70
2018,08,10,09,04,21.70
2018,08,10,09,05,21.70
2018,08,10,09,06,21.80
2018,08,10,09,07,21.80
2018,08,10,09,08,21.80
2018,08,10,09,09,21.80
2018,08,10,09,10,21.80
2018,08,10,09,11,21.80
2018,08,10,09,12,21.80
2018,08,10,09,13,21.80
2018,08,10,09,14,21.80
2018,08,10,09,15,21.80
2018,08,10,09,16,21.80
2018,08,10,09,17,21.80
2018,08,10,09,18,21.90
2018,08,10,09,19,21.90
2018,08,10,09,20,22.00
2018,08,10,09,21,22.10
2018,08,10,09,22,22.10
2018,08,10,09,23,22.20
2018,08,10,09,24,22.20
2018,08,10,09,25,22.20
2018,08,10,09,26,22.30
2018,08,10,09,27,22.30
2018,08,10,09,28,22.30
2018,08,10,09,29,22.40
2018,08,10,09,30,22.40
2018,08,10,09,31,22.40
2018,08,10,09,32,22.40
2018,08,10,09,33,22.40
2018,08,10,09,34,22.50
2018,08,10,09,35,22.50
2018,08,10,09,36,22.60
2018,08,10,09,37,22.60
2018,08,10,09,38,22.60
2018,08,10,09,39,22.70
2018,08,10,09,40,22.70
2018,08,10,09,41,22.70
2018,08,10,09,42,22.70
2018,08,10,09,43,22.70
2018,08,10,09,44,22.70
2018,08,10,09,45,22.70
2018,08,10,09,46,22.70
2018,08,10,09,47,22.70
2018,08,10,09,48,22.70
2018,08,10,09,49,22.70
2018,08,10,09,50,22.80
2018,08,10,09,51,22.80
2018,08,10,09,52,22.80
2018,08,10,09,53,22.80
2018,08,10,09,54,22.80
2018,08,10,09,55,22.80
2018,08,10,09,56,22.90
2018,08,10,09,57,22.90
2018,08,10,09,58,23.00
2018,08,10,09,59,23.00
2018,08,10,10,00,23.10
2018,08,10,10,01,23.10
2018,08,10,10,02,23.20
2018,08,10,10,03,23.20
2018,08,10,10,04,23.20
2018,08,10,10,05,23.20
2018,08,10,10,06,23.30
2018,08,10,10,07,23.30
2018,08,10,10,08,23.30
2018,08,10,10,09,23.30
2018,08,10,10,10,23.30
2018,08,10,10,11,23.30
2018,08,10,10,12,23.30
2018,08,10,10,13,23.30
2018,08,10,10,14,23.30
2018,08,10,10,15,23.30
2018,08,10,10,16,23.30
2018,08,10,10,17,23.30
2018,08,10,10,18,23.30
2018,08,10,10,19,23.20
2018,08,10,10,20,23.20
2018,08,10,10,21,23.20
2018,08,10,10,22,23.20
2018,08,10,10,23,23.20
2018,08,10,10,24,23.30
2018,08,10,10,25,23.30
2018,08,10,10,26,23.30
2018,08,10,10,27,23.30
2018,08,10,10,28,23.30
2018,08,10,10,29,23.40
2018,08,10,10,30,23.40
2018,08,10,10,31,23.40
2018,08,10,10,32,23.40
2018,08,10,10,33,23.40
2018,08,10,10,34,23.40
2018,08,10,10,35,23.40
2018,08,10,10,36,23.40
2018,08,10,10,37,23.40
2018,08,10,10,38,23.30
2018,08,10,10,39,23.30
2018,08,10,10,40,23.40
2018,08,10,10,41,23.40
2018,08,10,10,42,23.50
2018,08,10,10,43,23.50
2018,08,10,10,44,23.60
2018,08,10,10,45,23.60
2018,08,10,10,46,23.70
2018,08,10,10,47,23.70
2018,08,10,10,48,23.80
2018,08,10,10,49,23.80
2018,08,10,10,50,23.80
2018,08,10,10,51,23.80
2018,08,10,10,52,23.80
2018,08,10,10,53,23.70
2018,08,10,10,54,23.70
2018,08,10,10,55,23.70
2018,08,10,10,56,23.70
2018,08,10,10,57,23.70
2018,08,10,10,58,23.70
2018,08,10,10,59,23.70
2018,08,10,11,00,23.70
2018,08,10,11,01,23.70
2018,08,10,11,02,23.70
2018,08,10,11,03,23.70
2018,08,10,11,04,23.70
2018,08,10,11,05,23.70
2018,08,10,11,06,23.70
2018,08,10,11,07,23.80
2018,08,10,11,08,23.80
2018,08,10,11,09,23.80
2018,08,10,11,10,23.80
2018,08,10,11,11,23.80
2018,08,10,11,12,23.80
2018,08,10,11,13,23.80
2018,08,10,11,14,23.80
2018,08,10,11,15,23.80
2018,08,10,11,16,23.80
2018,08,10,11,17,23.70
2018,08,10,11,18,23.70
2018,08,10,11,19,23.70
2018,08,10,11,20,23.60
2018,08,10,11,21,23.60
2018,08,10,11,22,23.50
2018,08,10,11,23,23.50
2018,08,10,11,24,23.40
2018,08,10,11,25,23.40
2018,08,10,11,26,23.30
2018,08,10,11,27,23.30
2018,08,10,11,28,23.30
2018,08,10,11,29,23.30
2018,08,10,11,30,23.30
2018,08,10,11,31,23.30
2018,08,10,11,32,23.30
2018,08,10,11,33,23.30
2018,08,10,11,34,23.30
2018,08,10,11,35,23.30
2018,08,10,11,36,23.30
2018,08,10,11,37,23.30
2018,08,10,11,38,23.30
2018,08,10,11,39,23.40
2018,08,10,11,40,23.40
2018,08,10,11,41,23.40
2018,08,10,11,42,23.40
2018,08,10,11,43,23.40
2018,08,10,11,44,23.40
2018,08,10,11,45,23.40
2018,08,10,11,46,23.50
2018,08,10,11,47,23.50
2018,08,10,11,48,23.60
2018,08,10,11,49,23.60
2018,08,10,11,50,23.70
2018,08,10,11,51,23.70
2018,08,10,11,52,23.80
2018,08,10,11,53,23.80
2018,08,10,11,54,23.80
2018,08,10,11,55,23.80
2018,08,10,11,56,23.70
2018,08,10,11,57,23.70
2018,08,10,11,58,23.60
2018,08,10,11,59,23.60
2018,08,10,12,00,23.50
2018,08,10,12,01,23.50
2018,08,10,12,02,23.40
2018,08,10,12,03,23.40
2018,08,10,12,04,23.40
2018,08,10,12,05,23.40
2018,08,10,12,06,23.40
2018,08,10,12,07,23.50
2018,08,10,12,08,23.60
2018,08,10,12,09,23.70
2018,08,10,12,10,23.80
2018,08,10,12,11,23.80
2018,08,10,12,12,23.80
2018,08,10,12,13,23.80
2018,08,10,12,14,23.80
2018,08,10,12,15,23.70
2018,08,10,12,16,23.80
2018,08,10,12,17,23.80
2018,08,10,12,18,23.80
2018,08,10,12,19,23.90
2018,08,10,12,20,24.10
2018,08,10,12,21,24.20
2018,08,10,12,22,24.30
2018,08,10,12,23,24.30
2018,08,10,12,24,24.30
2018,08,10,12,25,24.30
2018,08,10,12,26,24.20
2018,08,10,12,27,24.10
2018,08,10,12,28,24.10
2018,08,10,12,29,24.00
2018,08,10,12,30,23.90
2018,08,10,12,31,23.90
2018,08,10,12,32,23.80
2018,08,10,12,33,23.80
2018,08,10,12,34,23.70
2018,08,10,12,35,23.70
2018,08,10,12,36,23.70
2018,08,10,12,37,23.70
2018,08,10,12,38,23.60
2018,08,10,12,39,23.60
2018,08,10,12,40,23.60
2018,08,10,12,41,23.70
2018,08,10,12,42,23.70
2018,08,10,12,43,23.80
2018,08,10,12,44,23.90
2018,08,10,12,45,23.90
2018,08,10,12,46,24.00
2018,08,10,12,47,24.10
2018,08,10,12,48,24.20
2018,08,10,12,49,24.30
2018,08,10,12,50,24.30
2018,08,10,12,51,24.30
2018,08,10,12,52,24.30
2018,08,10,12,53,24.30
2018,08,10,12,54,24.30
2018,08,10,12,55,24.40
2018,08,10,12,56,24.40
2018,08,10,12,57,24.40
2018,08,10,12,58,24.40
2018,08,10,12,59,24.50
2018,08,10,13,00,24.50
2018,08,10,13,01,24.60
2018,08,10,13,02,24.60
2018,08,10,13,03,24.70
2018,08,10,13,04,24.70
2018,08,10,13,05,24.70
2018,08,10,13,06,24.80
2018,08,10,13,07,24.90
2018,08,10,13,08,25.10
2018,08,10,13,09,25.10
2018,08,10,13,10,25.10
2018,08,10,13,11,25.10
2018,08,10,13,12,25.10
2018,08,10,13,13,25.10
2018,08,10,13,14,25.10
2018,08,10,13,15,25.10
2018,08,10,13,16,25.20
2018,08,10,13,17,25.20
2018,08,10,13,18,25.30
2018,08,10,13,19,25.30
2018,08,10,13,20,25.30
2018,08,10,13,21,25.30
2018,08,10,13,22,25.30
2018,08,10,13,23,25.40
2018,08,10,13,24,25.40
2018,08,10,13,25,25.50
2018,08,10,13,26,25.60
2018,08,10,13,27,25.70
2018,08,10,13,28,25.70
2018,08,10,13,29,25.70
2018,08,10,13,30,25.70
2018,08,10,13,31,25.70
2018,08,10,13,32,25.70
2018,08,10,13,33,25.70
2018,08,10,13,34,25.70
2018,08,10,13,35,25.70
2018,08,10,13,36,25.80
2018,08,10,13,37,25.80
2018,08,10,13,38,25.80
2018,08,10,13,39,25.80
2018,08,10,13,40,25.90
2018,08,10,13,41,25.90
2018,08,10,13,42,25.90
2018,08,10,13,43,25.90
2018,08,10,13,44,25.90
2018,08,10,13,45,26.00
2018,08,10,13,46,26.00
2018,08,10,13,47,26.00
2018,08,10,13,48,25.90
2018,08,10,13,49,25.90
2018,08,10,13,50,26.00
2018,08,10,13,51,26.00
2018,08,10,13,52,26.00
2018,08,10,13,53,26.10
2018,08,10,13,54,26.10
2018,08,10,13,55,26.10
2018,08,10,13,56,26.10
2018,08,10,13,57,26.20
2018,08,10,13,58,26.20
2018,08,10,13,59,26.20
2018,08,10,14,00,26.30
2018,08,10,14,01,26.50
2018,08,10,14,02,26.70
2018,08,10,14,03,27.00
2018,08,10,14,04,27.30
2018,08,10,14,05,27.50
2018,08,10,14,06,27.60
2018,08,10,14,07,27.80
2018,08,10,14,08,28.00
2018,08,10,14,09,28.20
2018,08,10,14,10,28.40
2018,08,10,14,11,28.50
2018,08,10,14,12,28.50
2018,08,10,14,13,28.60
2018,08,10,14,14,28.80
2018,08,10,14,15,28.80
2018,08,10,14,16,28.90
2018,08,10,14,17,28.90
2018,08,10,14,18,28.90
2018,08,10,14,19,28.90
2018,08,10,14,20,28.90
2018,08,10,14,21,29.00
2018,08,10,14,22,29.00
2018,08,10,14,23,29.10
2018,08,10,14,24,29.10
2018,08,10,14,25,29.10
2018,08,10,14,26,29.20
2018,08,10,14,27,29.30
2018,08,10,14,28,29.30
2018,08,10,14,29,29.40
2018,08,10,14,30,29.50
2018,08,10,14,31,29.50
2018,08,10,14,32,29.50
2018,08,10,14,33,29.50
2018,08,10,14,34,29.60
2018,08,10,14,35,29.60
2018,08,10,14,36,29.60
2018,08,10,14,37,29.70
2018,08,10,14,38,29.60
2018,08,10,14,39,29.60
2018,08,10,14,40,29.50
2018,08,10,14,41,29.50
2018,08,10,14,42,29.40
2018,08,10,14,43,29.40
2018,08,10,14,44,29.40
2018,08,10,14,45,29.40
2018,08,10,14,46,29.40
2018,08,10,14,47,29.40
2018,08,10,14,48,29.40
2018,08,10,14,49,29.50
2018,08,10,14,50,29.50
2018,08,10,14,51,29.50
2018,08,10,14,52,29.50
2018,08,10,14,53,29.50
2018,08,10,14,54,29.50
2018,08,10,14,55,29.40
2018,08,10,14,56,29.50
2018,08,10,14,57,29.50
2018,08,10,14,58,29.60
2018,08,10,14,59,29.70
2018,08,10,15,00,29.70
2018,08,10,15,01,29.80
2018,08,10,15,02,29.80
2018,08,10,15,03,29.70
2018,08,10,15,04,29.80
2018,08,10,15,05,29.80
2018,08,10,15,06,29.80
2018,08,10,15,07,29.90
2018,08,10,15,08,29.90
2018,08,10,15,09,29.80
2018,08,10,15,10,29.80
2018,08,10,15,11,29.80
2018,08,10,15,12,29.70
2018,08,10,15,13,29.70
2018,08,10,15,14,29.70
2018,08,10,15,15,29.70
2018,08,10,15,16,29.70
2018,08,10,15,17,29.70
2018,08,10,15,18,29.70
2018,08,10,15,19,29.70
2018,08,10,15,20,29.80
2018,08,10,15,21,29.90
2018,08,10,15,22,29.90
2018,08,10,15,23,29.90
2018,08,10,15,24,29.90
2018,08,10,15,25,30.00
2018,08,10,15,26,30.00
2018,08,10,15,27,30.00
2018,08,10,15,28,29.90
2018,08,10,15,29,30.00
2018,08,10,15,30,30.00
2018,08,10,15,31,30.00
2018,08,10,15,32,30.10
2018,08,10,15,33,30.10
2018,08,10,15,34,30.10
2018,08,10,15,35,30.10
2018,08,10,15,36,30.10
2018,08,10,15,37,30.10
2018,08,10,15,38,30.10
2018,08,10,15,39,30.10
2018,08,10,15,40,30.10
2018,08,10,15,41,30.10
2018,08,10,15,42,30.10
2018,08,10,15,43,30.10
2018,08,10,15,44,30.10
2018,08,10,15,45,30.10
2018,08,10,15,46,30.10
2018,08,10,15,47,30.00
2018,08,10,15,48,30.00
2018,08,10,15,49,29.90
2018,08,10,15,50,29.80
2018,08,10,15,51,29.70
2018,08,10,15,52,29.60
2018,08,10,15,53,29.60
2018,08,10,15,54,29.40
2018,08,10,15,55,29.30
2018,08,10,15,56,29.30
2018,08,10,15,57,29.30
2018,08,10,15,58,29.20
2018,08,10,15,59,29.10
2018,08,10,16,00,29.10
2018,08,10,16,01,29.00
2018,08,10,16,02,29.00
2018,08,10,16,03,28.90
2018,08,10,16,04,28.90
2018,08,10,16,05,28.80
2018,08,10,16,06,28.70
2018,08,10,16,07,28.60
2018,08,10,16,08,28.50
2018,08,10,16,09,28.50
2018,08,10,16,10,28.40
2018,08,10,16,11,28.40
2018,08,10,16,12,28.40
2018,08,10,16,13,28.40
2018,08,10,16,14,28.50
2018,08,10,16,15,28.50
2018,08,10,16,16,28.40
2018,08,10,16,17,28.50
2018,08,10,16,18,28.60
2018,08,10,16,19,28.60
2018,08,10,16,20,28.70
2018,08,10,16,21,28.70
2018,08,10,16,22,28.70
2018,08,10,16,23,28.80
2018,08,10,16,24,28.70
2018,08,10,16,25,28.70
2018,08,10,16,26,28.60
2018,08,10,16,27,28.60
2018,08,10,16,28,28.50
2018,08,10,16,29,28.50
2018,08,10,16,30,28.50
2018,08,10,16,31,28.40
2018,08,10,16,32,28.40
2018,08,10,16,33,28.30
2018,08,10,16,34,28.30
2018,08,10,16,35,28.20
2018,08,10,16,36,28.20
2018,08,10,16,37,28.10
2018,08,10,16,38,28.00
2018,08,10,16,39,27.90
2018,08,10,16,40,27.80
2018,08,10,16,41,27.80
2018,08,10,16,42,27.70
2018,08,10,16,43,27.70
2018,08,10,16,44,27.70
2018,08,10,16,45,27.60
2018,08,10,16,46,27.60
2018,08,10,16,47,27.60
2018,08,10,16,48,27.60
2018,08,10,16,49,27.50
2018,08,10,16,50,27.50
2018,08,10,16,51,27.50
2018,08,10,16,52,27.50
2018,08,10,16,53,27.50
2018,08,10,16,54,27.50
2018,08,10,16,55,27.50
2018,08,10,16,56,27.60
2018,08,10,16,57,27.60
2018,08,10,16,58,27.50
2018,08,10,16,59,27.40
2018,08,10,17,00,27.30
2018,08,10,17,01,27.20
2018,08,10,17,02,27.20
2018,08,10,17,03,27.10
2018,08,10,17,04,27.10
2018,08,10,17,05,27.10
2018,08,10,17,06,27.00
2018,08,10,17,07,27.00
2018,08,10,17,08,26.90
2018,08,10,17,09,26.90
2018,08,10,17,10,26.80
2018,08,10,17,11,26.80
2018,08,10,17,12,26.80
2018,08,10,17,13,26.80
2018,08,10,17,14,26.90
2018,08,10,17,15,26.90
2018,08,10,17,16,26.90
2018,08,10,17,17,26.90
2018,08,10,17,18,26.90
2018,08,10,17,19,26.90